This is the latest recevied weather packets stored in our database for station/object KI7MOQ. If no packets are shown the sender has not sent any weather packets the latest 10 day(s).
| Time | Temp. | Humidity | Pressure | Rain* | Wind** | Luminosity | Snow |
|---|---|---|---|---|---|---|---|
| 1777769449 | 23.33° C | 57% | 1013.3 hPa | 0 mm | - | 62 W/m² | - |
| 1777769145 | 23.33° C | 59% | 1013.6 hPa | 0 mm | - | 63 W/m² | - |
| 1777768843 | 22.78° C | 58% | 1013.3 hPa | 0 mm | - | 63 W/m² | - |
| 1777768540 | 22.78° C | 58% | 1013.4 hPa | 0 mm | - | 62 W/m² | - |
| 1777768237 | 22.78° C | 58% | 1013.3 hPa | 0 mm | - | 62 W/m² | - |
| 1777767934 | 22.78° C | 58% | 1013.4 hPa | 0 mm | - | 61 W/m² | - |
| 1777767631 | 22.78° C | 58% | 1013.5 hPa | 0 mm | - | 61 W/m² | - |
| 1777767327 | 22.78° C | 59% | 1013.5 hPa | 0 mm | - | 58 W/m² | - |
| 1777767025 | 22.78° C | 59% | 1013.5 hPa | 0 mm | - | 52 W/m² | - |
| 1777766722 | 22.78° C | 60% | 1013.4 hPa | 0 mm | - | 49 W/m² | - |
| 1777766419 | 22.22° C | 59% | 1013.4 hPa | 0 mm | - | 46 W/m² | - |
| 1777766115 | 22.22° C | 59% | 1013.6 hPa | 0 mm | - | 44 W/m² | - |
| 1777765813 | 22.22° C | 59% | 1013.6 hPa | 0 mm | - | 70 W/m² | - |
| 1777765509 | 22.22° C | 59% | 1013.7 hPa | 0 mm | - | 54 W/m² | - |
| 1777765207 | 22.22° C | 60% | 1013.7 hPa | 0 mm | - | 141 W/m² | - |
| 1777764906 | 22.22° C | 60% | 1013.8 hPa | 0 mm | - | 280 W/m² | - |
| 1777764604 | 22.22° C | 60% | 1013.8 hPa | 0 mm | - | 223 W/m² | - |
| 1777764300 | 22.22° C | 60% | 1013.8 hPa | 0 mm | - | 317 W/m² | - |
| 1777763997 | 21.67° C | 61% | 1013.9 hPa | 0 mm | - | 157 W/m² | - |
| 1777763694 | 21.67° C | 61% | 1014 hPa | 0 mm | - | 163 W/m² | - |
| 1777763392 | 21.67° C | 61% | 1014 hPa | 0 mm | - | 59 W/m² | - |
| 1777763090 | 21.67° C | 60% | 1014.1 hPa | 0 mm | - | 134 W/m² | - |
| 1777762788 | 21.11° C | 61% | 1014.1 hPa | 0 mm | - | 51 W/m² | - |
| 1777762484 | 21.67° C | 60% | 1014.4 hPa | 0 mm | - | 44 W/m² | - |
| 1777762181 | 21.67° C | 60% | 1014.3 hPa | 0 mm | - | 41 W/m² | - |
* Rain latest hour (hover to see other rain measurements)
** Current wind speed in m/s (hover to see current wind gust speed)